Location: Bothwell
(42.3833°S, 147.0000°E)
Time: 20:50:19
(UTC+10:00)

Envisat - Pass Details

Date: 24 February 2024
Orbit: 762 x 764 km, 98.3° (Epoch: 22 April)

Event Time Altitude Azimuth Distance (km) Brightness Sun altitude
Exits shadow 03:58:12 61° 220° (SW) 880 3.2 -27.2°
Drops below altitude 10° 04:02:30 10° 196° (SSW) 2,333 5.8 -26.6°
Sets 04:04:50 0° 194° (SSW) 3,266 6.7 -26.3°
